This is the latest recevied weather packets stored in our database for station/object K8RRT. If no packets are shown the sender has not sent any weather packets the latest 10 day(s).
| Time | Temp. | Humidity | Pressure | Rain* | Wind** | Luminosity | Snow |
|---|---|---|---|---|---|---|---|
| 1777852934 | 13.89° C | 50% | 1011 hPa | 0 mm | - | 10 W/m² | - |
| 1777852633 | 14.44° C | 47% | 1010.7 hPa | 0 mm | - | 13 W/m² | - |
| 1777852329 | 15° C | 42% | 1010.8 hPa | 0 mm | - | 18 W/m² | - |
| 1777852027 | 15.56° C | 42% | 1010.7 hPa | 0 mm | - | 23 W/m² | - |
| 1777851725 | 15.56° C | 41% | 1010.7 hPa | 0 mm | - | 32 W/m² | - |
| 1777851421 | 15.56° C | 39% | 1010.5 hPa | 0 mm | - | 48 W/m² | - |
| 1777851117 | 15.56° C | 41% | 1010.7 hPa | 0 mm | - | 29 W/m² | - |
| 1777850814 | 15.56° C | 42% | 1010.7 hPa | 0 mm | - | 36 W/m² | - |
| 1777850511 | 15.56° C | 39% | 1010.9 hPa | 0 mm | - | 62 W/m² | - |
| 1777850210 | 16.11° C | 39% | 1011.1 hPa | 0 mm | - | 32 W/m² | - |
| 1777849906 | 16.11° C | 39% | 1011.2 hPa | 0 mm | - | 50 W/m² | - |
| 1777849602 | 16.11° C | 38% | 1011 hPa | 0 mm | - | 88 W/m² | - |
| 1777849300 | 16.11° C | 38% | 1011.2 hPa | 0 mm | - | 50 W/m² | - |
| 1777848997 | 16.67° C | 37% | 1011.3 hPa | 0 mm | - | 89 W/m² | - |
| 1777848696 | 16.67° C | 38% | 1011.2 hPa | 0 mm | - | 85 W/m² | - |
| 1777848394 | 17.22° C | 36% | 1011.1 hPa | 0 mm | - | 120 W/m² | - |
| 1777848092 | 17.22° C | 37% | 1011.4 hPa | 0 mm | - | 155 W/m² | - |
| 1777847790 | 17.22° C | 36% | 1011.4 hPa | 0 mm | - | 193 W/m² | - |
| 1777847486 | 17.22° C | 36% | 1011.5 hPa | 0 mm | - | 181 W/m² | - |
| 1777847183 | 17.22° C | 38% | 1011.5 hPa | 0 mm | - | 170 W/m² | - |
| 1777846881 | 16.67° C | 36% | 1011.4 hPa | 0 mm | - | 173 W/m² | - |
| 1777846579 | 17.22° C | 36% | 1011.3 hPa | 0 mm | - | 98 W/m² | - |
| 1777846276 | 17.78° C | 36% | 1011.5 hPa | 0 mm | - | 225 W/m² | - |
| 1777845973 | 17.78° C | 38% | 1011.6 hPa | 0 mm | - | 279 W/m² | - |
| 1777845670 | 17.22° C | 38% | 1011.4 hPa | 0 mm | - | 319 W/m² | - |
* Rain latest hour (hover to see other rain measurements)
** Current wind speed in m/s (hover to see current wind gust speed)